owner,sensor,date,latitude,longitude,vertical_datum,sea_water_temperature,qcFlag 
WAVCIS,ioos:station:WAVCIS:CSI16:1,2011-02-01T00:00:00Z,29.4012,-89.0355,10.0,16.471,11111222 
WAVCIS,ioos:station:WAVCIS:CSI16:1,2011-02-01T00:15:00Z,29.4012,-89.0355,10.0,16.504,11111222 
WAVCIS,ioos:station:WAVCIS:CSI16:1,2011-02-01T00:30:00Z,29.4012,-89.0355,10.0,16.516,11111222 
WAVCIS,ioos:station:WAVCIS:CSI16:1,2011-02-01T00:45:00Z,29.4012,-89.0355,10.0,16.512,11111222 
WAVCIS,ioos:station:WAVCIS:CSI16:1,2011-02-01T01:00:00Z,29.4012,-89.0355,10.0,16.56,11111222 
WAVCIS,ioos:station:WAVCIS:CSI16:1,2011-02-01T01:15:00Z,29.4012,-89.0355,10.0,16.554,11111222 
WAVCIS,ioos:station:WAVCIS:CSI16:1,2011-02-01T01:30:00Z,29.4012,-89.0355,10.0,16.534,11111222 
WAVCIS,ioos:station:WAVCIS:CSI16:1,2011-02-01T01:45:00Z,29.4012,-89.0355,10.0,16.547,11111222 
WAVCIS,ioos:station:WAVCIS:CSI16:1,2011-02-01T02:00:00Z,29.4012,-89.0355,10.0,16.568,11111222 
WAVCIS,ioos:station:WAVCIS:CSI16:1,2011-02-01T02:15:00Z,29.4012,-89.0355,10.0,16.583,11111222 
WAVCIS,ioos:station:WAVCIS:CSI16:1,2011-02-01T02:30:00Z,29.4012,-89.0355,10.0,16.353,11111222 
WAVCIS,ioos:station:WAVCIS:CSI16:1,2011-02-01T02:45:00Z,29.4012,-89.0355,10.0,16.448,11111222 
WAVCIS,ioos:station:WAVCIS:CSI16:1,2011-02-01T03:00:00Z,29.4012,-89.0355,10.0,16.456,11111222 
WAVCIS,ioos:station:WAVCIS:CSI16:1,2011-02-01T03:15:00Z,29.4012,-89.0355,10.0,16.373,11111222 
WAVCIS,ioos:station:WAVCIS:CSI16:1,2011-02-01T03:30:00Z,29.4012,-89.0355,10.0,16.286,11111222 
WAVCIS,ioos:station:WAVCIS:CSI16:1,2011-02-01T03:45:00Z,29.4012,-89.0355,10.0,16.216,11111222 
WAVCIS,ioos:station:WAVCIS:CSI16:1,2011-02-01T04:00:00Z,29.4012,-89.0355,10.0,16.218,11111222 
WAVCIS,ioos:station:WAVCIS:CSI16:1,2011-02-01T04:15:00Z,29.4012,-89.0355,10.0,16.117,11111222 
WAVCIS,ioos:station:WAVCIS:CSI16:1,2011-02-01T04:30:00Z,29.4012,-89.0355,10.0,16.117,11111222 
WAVCIS,ioos:station:WAVCIS:CSI16:1,2011-02-01T04:45:00Z,29.4012,-89.0355,10.0,16.471,11111222 
WAVCIS,ioos:station:WAVCIS:CSI16:1,2011-02-01T05:00:00Z,29.4012,-89.0355,10.0,16.715,11111222 
WAVCIS,ioos:station:WAVCIS:CSI16:1,2011-02-01T05:15:00Z,29.4012,-89.0355,10.0,16.736,11111222 
WAVCIS,ioos:station:WAVCIS:CSI16:1,2011-02-01T05:30:00Z,29.4012,-89.0355,10.0,16.892,11111222 
WAVCIS,ioos:station:WAVCIS:CSI16:1,2011-02-01T05:45:00Z,29.4012,-89.0355,10.0,16.85,11111222 
WAVCIS,ioos:station:WAVCIS:CSI16:1,2011-02-01T06:00:00Z,29.4012,-89.0355,10.0,16.858,11111222 
WAVCIS,ioos:station:WAVCIS:CSI16:1,2011-02-01T06:15:00Z,29.4012,-89.0355,10.0,16.731,11111222 
WAVCIS,ioos:station:WAVCIS:CSI16:1,2011-02-01T06:30:00Z,29.4012,-89.0355,10.0,16.514,11111222 
WAVCIS,ioos:station:WAVCIS:CSI16:1,2011-02-01T06:45:00Z,29.4012,-89.0355,10.0,16.426,11111222 
WAVCIS,ioos:station:WAVCIS:CSI16:1,2011-02-01T07:00:00Z,29.4012,-89.0355,10.0,16.295,11111222 
WAVCIS,ioos:station:WAVCIS:CSI16:1,2011-02-01T07:15:00Z,29.4012,-89.0355,10.0,16.232,11111222 
WAVCIS,ioos:station:WAVCIS:CSI16:1,2011-02-01T07:30:00Z,29.4012,-89.0355,10.0,16.003,11111222 
WAVCIS,ioos:station:WAVCIS:CSI16:1,2011-02-01T07:45:00Z,29.4012,-89.0355,10.0,15.966,11111222 
WAVCIS,ioos:station:WAVCIS:CSI16:1,2011-02-01T08:00:00Z,29.4012,-89.0355,10.0,15.956,11111222 
WAVCIS,ioos:station:WAVCIS:CSI16:1,2011-02-01T08:15:00Z,29.4012,-89.0355,10.0,16.0,11111222 
WAVCIS,ioos:station:WAVCIS:CSI16:1,2011-02-01T08:30:00Z,29.4012,-89.0355,10.0,15.865,11111222 
WAVCIS,ioos:station:WAVCIS:CSI16:1,2011-02-01T08:45:00Z,29.4012,-89.0355,10.0,15.848,11111222 
WAVCIS,ioos:station:WAVCIS:CSI16:1,2011-02-01T09:00:00Z,29.4012,-89.0355,10.0,15.867,11111222 
WAVCIS,ioos:station:WAVCIS:CSI16:1,2011-02-01T09:15:00Z,29.4012,-89.0355,10.0,15.872,11111222 
WAVCIS,ioos:station:WAVCIS:CSI16:1,2011-02-01T09:30:00Z,29.4012,-89.0355,10.0,15.88,11111222 
WAVCIS,ioos:station:WAVCIS:CSI16:1,2011-02-01T09:45:00Z,29.4012,-89.0355,10.0,15.934,11111222 
WAVCIS,ioos:station:WAVCIS:CSI16:1,2011-02-01T10:00:00Z,29.4012,-89.0355,10.0,15.992,11111222 
WAVCIS,ioos:station:WAVCIS:CSI16:1,2011-02-01T10:15:00Z,29.4012,-89.0355,10.0,16.044,11111222 
WAVCIS,ioos:station:WAVCIS:CSI16:1,2011-02-01T10:30:00Z,29.4012,-89.0355,10.0,16.062,11111222 
WAVCIS,ioos:station:WAVCIS:CSI16:1,2011-02-01T10:45:00Z,29.4012,-89.0355,10.0,16.067,11111222 
WAVCIS,ioos:station:WAVCIS:CSI16:1,2011-02-01T11:00:00Z,29.4012,-89.0355,10.0,16.059,11111222 
WAVCIS,ioos:station:WAVCIS:CSI16:1,2011-02-01T11:15:00Z,29.4012,-89.0355,10.0,16.004,11111222 
WAVCIS,ioos:station:WAVCIS:CSI16:1,2011-02-01T11:30:00Z,29.4012,-89.0355,10.0,16.011,11111222 
WAVCIS,ioos:station:WAVCIS:CSI16:1,2011-02-01T11:45:00Z,29.4012,-89.0355,10.0,16.02,11111222 
WAVCIS,ioos:station:WAVCIS:CSI16:1,2011-02-01T12:00:00Z,29.4012,-89.0355,10.0,16.015,11111222 
WAVCIS,ioos:station:WAVCIS:CSI16:1,2011-02-01T12:15:00Z,29.4012,-89.0355,10.0,15.999,11111222 
WAVCIS,ioos:station:WAVCIS:CSI16:1,2011-02-01T12:30:00Z,29.4012,-89.0355,10.0,16.007,11111222 
WAVCIS,ioos:station:WAVCIS:CSI16:1,2011-02-01T12:45:00Z,29.4012,-89.0355,10.0,15.962,11111222 
WAVCIS,ioos:station:WAVCIS:CSI16:1,2011-02-01T13:00:00Z,29.4012,-89.0355,10.0,15.943,11111222 
WAVCIS,ioos:station:WAVCIS:CSI16:1,2011-02-01T13:15:00Z,29.4012,-89.0355,10.0,15.938,11111222 
WAVCIS,ioos:station:WAVCIS:CSI16:1,2011-02-01T13:30:00Z,29.4012,-89.0355,10.0,16.07,11111222 
WAVCIS,ioos:station:WAVCIS:CSI16:1,2011-02-01T13:45:00Z,29.4012,-89.0355,10.0,16.113,11111222 
WAVCIS,ioos:station:WAVCIS:CSI16:1,2011-02-01T14:00:00Z,29.4012,-89.0355,10.0,16.16,11111222 
WAVCIS,ioos:station:WAVCIS:CSI16:1,2011-02-01T14:15:00Z,29.4012,-89.0355,10.0,16.183,11111222 
WAVCIS,ioos:station:WAVCIS:CSI16:1,2011-02-01T14:30:00Z,29.4012,-89.0355,10.0,16.204,11111222 
WAVCIS,ioos:station:WAVCIS:CSI16:1,2011-02-01T14:45:00Z,29.4012,-89.0355,10.0,16.234,11111222 
WAVCIS,ioos:station:WAVCIS:CSI16:1,2011-02-01T15:00:00Z,29.4012,-89.0355,10.0,16.273,11111222 
WAVCIS,ioos:station:WAVCIS:CSI16:1,2011-02-01T15:15:00Z,29.4012,-89.0355,10.0,16.3,11111222 
WAVCIS,ioos:station:WAVCIS:CSI16:1,2011-02-01T15:30:00Z,29.4012,-89.0355,10.0,16.318,11111222 
WAVCIS,ioos:station:WAVCIS:CSI16:1,2011-02-01T15:45:00Z,29.4012,-89.0355,10.0,16.35,11111222 
WAVCIS,ioos:station:WAVCIS:CSI16:1,2011-02-01T16:00:00Z,29.4012,-89.0355,10.0,16.366,11111222 
WAVCIS,ioos:station:WAVCIS:CSI16:1,2011-02-01T16:15:00Z,29.4012,-89.0355,10.0,16.382,11111222 
WAVCIS,ioos:station:WAVCIS:CSI16:1,2011-02-01T16:30:00Z,29.4012,-89.0355,10.0,16.392,11111222 
WAVCIS,ioos:station:WAVCIS:CSI16:1,2011-02-01T16:45:00Z,29.4012,-89.0355,10.0,16.425,11111222 
WAVCIS,ioos:station:WAVCIS:CSI16:1,2011-02-01T17:00:00Z,29.4012,-89.0355,10.0,16.469,11111222 
WAVCIS,ioos:station:WAVCIS:CSI16:1,2011-02-01T17:15:00Z,29.4012,-89.0355,10.0,16.51,11111222 
WAVCIS,ioos:station:WAVCIS:CSI16:1,2011-02-01T17:30:00Z,29.4012,-89.0355,10.0,16.542,11111222 
WAVCIS,ioos:station:WAVCIS:CSI16:1,2011-02-01T17:45:00Z,29.4012,-89.0355,10.0,16.548,11111222 
WAVCIS,ioos:station:WAVCIS:CSI16:1,2011-02-01T18:00:00Z,29.4012,-89.0355,10.0,16.555,11111222 
WAVCIS,ioos:station:WAVCIS:CSI16:1,2011-02-01T18:15:00Z,29.4012,-89.0355,10.0,16.567,11111222 
WAVCIS,ioos:station:WAVCIS:CSI16:1,2011-02-01T18:30:00Z,29.4012,-89.0355,10.0,16.604,11111222 
WAVCIS,ioos:station:WAVCIS:CSI16:1,2011-02-01T18:45:00Z,29.4012,-89.0355,10.0,16.623,11111222 
WAVCIS,ioos:station:WAVCIS:CSI16:1,2011-02-01T19:00:00Z,29.4012,-89.0355,10.0,16.68,11111222 
WAVCIS,ioos:station:WAVCIS:CSI16:1,2011-02-01T19:15:00Z,29.4012,-89.0355,10.0,16.698,11111222 
WAVCIS,ioos:station:WAVCIS:CSI16:1,2011-02-01T19:30:00Z,29.4012,-89.0355,10.0,16.729,11111222 
WAVCIS,ioos:station:WAVCIS:CSI16:1,2011-02-01T19:45:00Z,29.4012,-89.0355,10.0,16.749,11111222 
WAVCIS,ioos:station:WAVCIS:CSI16:1,2011-02-01T20:00:00Z,29.4012,-89.0355,10.0,16.766,11111222 
WAVCIS,ioos:station:WAVCIS:CSI16:1,2011-02-01T20:15:00Z,29.4012,-89.0355,10.0,16.778,11111222 
WAVCIS,ioos:station:WAVCIS:CSI16:1,2011-02-01T20:30:00Z,29.4012,-89.0355,10.0,16.787,11111222 
WAVCIS,ioos:station:WAVCIS:CSI16:1,2011-02-01T20:45:00Z,29.4012,-89.0355,10.0,16.717,11111222 
WAVCIS,ioos:station:WAVCIS:CSI16:1,2011-02-01T21:00:00Z,29.4012,-89.0355,10.0,16.788,11111222 
WAVCIS,ioos:station:WAVCIS:CSI16:1,2011-02-01T21:15:00Z,29.4012,-89.0355,10.0,16.8,11111222 
WAVCIS,ioos:station:WAVCIS:CSI16:1,2011-02-01T21:30:00Z,29.4012,-89.0355,10.0,16.793,11111222 
WAVCIS,ioos:station:WAVCIS:CSI16:1,2011-02-01T21:45:00Z,29.4012,-89.0355,10.0,16.765,11111222 
WAVCIS,ioos:station:WAVCIS:CSI16:1,2011-02-01T22:00:00Z,29.4012,-89.0355,10.0,16.748,11111222 
WAVCIS,ioos:station:WAVCIS:CSI16:1,2011-02-01T22:15:00Z,29.4012,-89.0355,10.0,16.732,11111222 
WAVCIS,ioos:station:WAVCIS:CSI16:1,2011-02-01T22:30:00Z,29.4012,-89.0355,10.0,16.741,11111222 
WAVCIS,ioos:station:WAVCIS:CSI16:1,2011-02-01T22:45:00Z,29.4012,-89.0355,10.0,16.715,11111222 
WAVCIS,ioos:station:WAVCIS:CSI16:1,2011-02-01T23:00:00Z,29.4012,-89.0355,10.0,16.703,11111222 
WAVCIS,ioos:station:WAVCIS:CSI16:1,2011-02-01T23:15:00Z,29.4012,-89.0355,10.0,16.685,11111222 
WAVCIS,ioos:station:WAVCIS:CSI16:1,2011-02-01T23:30:00Z,29.4012,-89.0355,10.0,16.661,11111222 
WAVCIS,ioos:station:WAVCIS:CSI16:1,2011-02-01T23:45:00Z,29.4012,-89.0355,10.0,16.631,11111222 
WAVCIS,ioos:station:WAVCIS:CSI16:1,2011-02-02T00:00:00Z,29.4012,-89.0355,10.0,16.601,11111222 
WAVCIS,ioos:station:WAVCIS:CSI16:1,2011-02-02T00:15:00Z,29.4012,-89.0355,10.0,16.57,11111222 
WAVCIS,ioos:station:WAVCIS:CSI16:1,2011-02-02T00:30:00Z,29.4012,-89.0355,10.0,16.555,11111222 
WAVCIS,ioos:station:WAVCIS:CSI16:1,2011-02-02T00:45:00Z,29.4012,-89.0355,10.0,16.558,11111222 
WAVCIS,ioos:station:WAVCIS:CSI16:1,2011-02-02T01:00:00Z,29.4012,-89.0355,10.0,16.543,11111222 
WAVCIS,ioos:station:WAVCIS:CSI16:1,2011-02-02T01:15:00Z,29.4012,-89.0355,10.0,16.508,11111222 
WAVCIS,ioos:station:WAVCIS:CSI16:1,2011-02-02T01:30:00Z,29.4012,-89.0355,10.0,16.505,11111222 
WAVCIS,ioos:station:WAVCIS:CSI16:1,2011-02-02T01:45:00Z,29.4012,-89.0355,10.0,16.478,11111222 
WAVCIS,ioos:station:WAVCIS:CSI16:1,2011-02-02T02:00:00Z,29.4012,-89.0355,10.0,16.458,11111222 
WAVCIS,ioos:station:WAVCIS:CSI16:1,2011-02-02T02:15:00Z,29.4012,-89.0355,10.0,16.433,11111222 
WAVCIS,ioos:station:WAVCIS:CSI16:1,2011-02-02T02:30:00Z,29.4012,-89.0355,10.0,16.417,11111222 
WAVCIS,ioos:station:WAVCIS:CSI16:1,2011-02-02T02:45:00Z,29.4012,-89.0355,10.0,16.391,11111222 
WAVCIS,ioos:station:WAVCIS:CSI16:1,2011-02-02T03:00:00Z,29.4012,-89.0355,10.0,16.38,11111222 
WAVCIS,ioos:station:WAVCIS:CSI16:1,2011-02-02T03:15:00Z,29.4012,-89.0355,10.0,16.37,11111222 
WAVCIS,ioos:station:WAVCIS:CSI16:1,2011-02-02T03:30:00Z,29.4012,-89.0355,10.0,16.358,11111222 
WAVCIS,ioos:station:WAVCIS:CSI16:1,2011-02-02T03:45:00Z,29.4012,-89.0355,10.0,16.339,11111222 
WAVCIS,ioos:station:WAVCIS:CSI16:1,2011-02-02T04:00:00Z,29.4012,-89.0355,10.0,16.317,11111222 
WAVCIS,ioos:station:WAVCIS:CSI16:1,2011-02-02T04:15:00Z,29.4012,-89.0355,10.0,16.32,11111222 
WAVCIS,ioos:station:WAVCIS:CSI16:1,2011-02-02T04:30:00Z,29.4012,-89.0355,10.0,16.296,11111222 
WAVCIS,ioos:station:WAVCIS:CSI16:1,2011-02-02T04:45:00Z,29.4012,-89.0355,10.0,16.289,11111222 
WAVCIS,ioos:station:WAVCIS:CSI16:1,2011-02-02T05:00:00Z,29.4012,-89.0355,10.0,16.28,11111222 
WAVCIS,ioos:station:WAVCIS:CSI16:1,2011-02-02T05:15:00Z,29.4012,-89.0355,10.0,16.283,11111222 
WAVCIS,ioos:station:WAVCIS:CSI16:1,2011-02-02T05:30:00Z,29.4012,-89.0355,10.0,16.264,11111222 
WAVCIS,ioos:station:WAVCIS:CSI16:1,2011-02-02T05:45:00Z,29.4012,-89.0355,10.0,16.245,11111222 
WAVCIS,ioos:station:WAVCIS:CSI16:1,2011-02-02T06:00:00Z,29.4012,-89.0355,10.0,16.258,11111222 
WAVCIS,ioos:station:WAVCIS:CSI16:1,2011-02-02T06:15:00Z,29.4012,-89.0355,10.0,16.238,11111222 
WAVCIS,ioos:station:WAVCIS:CSI16:1,2011-02-02T06:30:00Z,29.4012,-89.0355,10.0,16.21,11111222 
WAVCIS,ioos:station:WAVCIS:CSI16:1,2011-02-02T06:45:00Z,29.4012,-89.0355,10.0,16.183,11111222 
WAVCIS,ioos:station:WAVCIS:CSI16:1,2011-02-02T07:00:00Z,29.4012,-89.0355,10.0,16.136,11111222 
WAVCIS,ioos:station:WAVCIS:CSI16:1,2011-02-02T07:15:00Z,29.4012,-89.0355,10.0,16.113,11111222 
WAVCIS,ioos:station:WAVCIS:CSI16:1,2011-02-02T07:30:00Z,29.4012,-89.0355,10.0,16.128,11111222 
WAVCIS,ioos:station:WAVCIS:CSI16:1,2011-02-02T07:45:00Z,29.4012,-89.0355,10.0,16.122,11111222 
WAVCIS,ioos:station:WAVCIS:CSI16:1,2011-02-02T08:00:00Z,29.4012,-89.0355,10.0,16.136,11111222 
WAVCIS,ioos:station:WAVCIS:CSI16:1,2011-02-02T08:15:00Z,29.4012,-89.0355,10.0,16.153,11111222 
WAVCIS,ioos:station:WAVCIS:CSI16:1,2011-02-02T08:30:00Z,29.4012,-89.0355,10.0,16.142,11111222 
WAVCIS,ioos:station:WAVCIS:CSI16:1,2011-02-02T08:45:00Z,29.4012,-89.0355,10.0,16.146,11111222 
WAVCIS,ioos:station:WAVCIS:CSI16:1,2011-02-02T09:00:00Z,29.4012,-89.0355,10.0,16.162,11111222 
WAVCIS,ioos:station:WAVCIS:CSI16:1,2011-02-02T09:15:00Z,29.4012,-89.0355,10.0,16.153,11111222 
WAVCIS,ioos:station:WAVCIS:CSI16:1,2011-02-02T09:30:00Z,29.4012,-89.0355,10.0,16.146,11111222 
WAVCIS,ioos:station:WAVCIS:CSI16:1,2011-02-02T09:45:00Z,29.4012,-89.0355,10.0,16.133,11111222 
WAVCIS,ioos:station:WAVCIS:CSI16:1,2011-02-02T10:00:00Z,29.4012,-89.0355,10.0,16.136,11111222 
WAVCIS,ioos:station:WAVCIS:CSI16:1,2011-02-02T10:15:00Z,29.4012,-89.0355,10.0,15.88,11111222 
WAVCIS,ioos:station:WAVCIS:CSI16:1,2011-02-02T10:30:00Z,29.4012,-89.0355,10.0,15.737,11111222 
WAVCIS,ioos:station:WAVCIS:CSI16:1,2011-02-02T10:45:00Z,29.4012,-89.0355,10.0,15.481,11111222 
WAVCIS,ioos:station:WAVCIS:CSI16:1,2011-02-02T11:00:00Z,29.4012,-89.0355,10.0,15.398,11111222 
WAVCIS,ioos:station:WAVCIS:CSI16:1,2011-02-02T11:15:00Z,29.4012,-89.0355,10.0,15.449,11111222 
WAVCIS,ioos:station:WAVCIS:CSI16:1,2011-02-02T11:30:00Z,29.4012,-89.0355,10.0,15.459,11111222 
WAVCIS,ioos:station:WAVCIS:CSI16:1,2011-02-02T11:45:00Z,29.4012,-89.0355,10.0,15.465,11111222 
WAVCIS,ioos:station:WAVCIS:CSI16:1,2011-02-02T12:00:00Z,29.4012,-89.0355,10.0,15.395,11111222 
WAVCIS,ioos:station:WAVCIS:CSI16:1,2011-02-02T12:15:00Z,29.4012,-89.0355,10.0,15.204,11111222 
WAVCIS,ioos:station:WAVCIS:CSI16:1,2011-02-02T12:30:00Z,29.4012,-89.0355,10.0,15.231,11111222 
WAVCIS,ioos:station:WAVCIS:CSI16:1,2011-02-02T12:45:00Z,29.4012,-89.0355,10.0,15.172,11111222 
WAVCIS,ioos:station:WAVCIS:CSI16:1,2011-02-02T13:00:00Z,29.4012,-89.0355,10.0,15.2,11111222 
WAVCIS,ioos:station:WAVCIS:CSI16:1,2011-02-02T13:15:00Z,29.4012,-89.0355,10.0,15.191,11111222 
WAVCIS,ioos:station:WAVCIS:CSI16:1,2011-02-02T13:30:00Z,29.4012,-89.0355,10.0,15.218,11111222 
WAVCIS,ioos:station:WAVCIS:CSI16:1,2011-02-02T13:45:00Z,29.4012,-89.0355,10.0,15.287,11111222 
WAVCIS,ioos:station:WAVCIS:CSI16:1,2011-02-02T14:00:00Z,29.4012,-89.0355,10.0,15.252,11111222 
WAVCIS,ioos:station:WAVCIS:CSI16:1,2011-02-02T14:15:00Z,29.4012,-89.0355,10.0,15.278,11111222 
WAVCIS,ioos:station:WAVCIS:CSI16:1,2011-02-02T14:30:00Z,29.4012,-89.0355,10.0,15.27,11111222 
WAVCIS,ioos:station:WAVCIS:CSI16:1,2011-02-02T14:45:00Z,29.4012,-89.0355,10.0,15.263,11111222 
WAVCIS,ioos:station:WAVCIS:CSI16:1,2011-02-02T15:00:00Z,29.4012,-89.0355,10.0,15.152,11111222 
WAVCIS,ioos:station:WAVCIS:CSI16:1,2011-02-02T15:15:00Z,29.4012,-89.0355,10.0,14.92,11111222 
WAVCIS,ioos:station:WAVCIS:CSI16:1,2011-02-02T15:30:00Z,29.4012,-89.0355,10.0,14.864,11111222 
WAVCIS,ioos:station:WAVCIS:CSI16:1,2011-02-02T15:45:00Z,29.4012,-89.0355,10.0,14.699,11111222 
WAVCIS,ioos:station:WAVCIS:CSI16:1,2011-02-02T16:00:00Z,29.4012,-89.0355,10.0,14.744,11111222 
WAVCIS,ioos:station:WAVCIS:CSI16:1,2011-02-02T16:15:00Z,29.4012,-89.0355,10.0,14.771,11111222 
WAVCIS,ioos:station:WAVCIS:CSI16:1,2011-02-02T16:30:00Z,29.4012,-89.0355,10.0,14.81,11111222 
WAVCIS,ioos:station:WAVCIS:CSI16:1,2011-02-02T16:45:00Z,29.4012,-89.0355,10.0,14.56,11111222 
WAVCIS,ioos:station:WAVCIS:CSI16:1,2011-02-02T17:00:00Z,29.4012,-89.0355,10.0,14.567,11111222 
WAVCIS,ioos:station:WAVCIS:CSI16:1,2011-02-02T17:15:00Z,29.4012,-89.0355,10.0,14.599,11111222 
WAVCIS,ioos:station:WAVCIS:CSI16:1,2011-02-02T17:30:00Z,29.4012,-89.0355,10.0,14.542,11111222 
WAVCIS,ioos:station:WAVCIS:CSI16:1,2011-02-02T17:45:00Z,29.4012,-89.0355,10.0,14.519,11111222 
WAVCIS,ioos:station:WAVCIS:CSI16:1,2011-02-02T18:00:00Z,29.4012,-89.0355,10.0,14.517,11111222 
WAVCIS,ioos:station:WAVCIS:CSI16:1,2011-02-02T18:15:00Z,29.4012,-89.0355,10.0,14.529,11111222 
WAVCIS,ioos:station:WAVCIS:CSI16:1,2011-02-02T18:30:00Z,29.4012,-89.0355,10.0,14.541,11111222 
WAVCIS,ioos:station:WAVCIS:CSI16:1,2011-02-02T18:45:00Z,29.4012,-89.0355,10.0,14.574,11111222 
WAVCIS,ioos:station:WAVCIS:CSI16:1,2011-02-02T19:00:00Z,29.4012,-89.0355,10.0,14.61,11111222 
WAVCIS,ioos:station:WAVCIS:CSI16:1,2011-02-02T19:15:00Z,29.4012,-89.0355,10.0,14.635,11111222 
WAVCIS,ioos:station:WAVCIS:CSI16:1,2011-02-02T19:30:00Z,29.4012,-89.0355,10.0,14.623,11111222 
WAVCIS,ioos:station:WAVCIS:CSI16:1,2011-02-02T19:45:00Z,29.4012,-89.0355,10.0,14.597,11111222 
WAVCIS,ioos:station:WAVCIS:CSI16:1,2011-02-02T20:00:00Z,29.4012,-89.0355,10.0,14.635,11111222 
WAVCIS,ioos:station:WAVCIS:CSI16:1,2011-02-02T20:15:00Z,29.4012,-89.0355,10.0,14.587,11111222 
WAVCIS,ioos:station:WAVCIS:CSI16:1,2011-02-02T20:30:00Z,29.4012,-89.0355,10.0,14.603,11111222 
WAVCIS,ioos:station:WAVCIS:CSI16:1,2011-02-02T20:45:00Z,29.4012,-89.0355,10.0,14.683,11111222 
WAVCIS,ioos:station:WAVCIS:CSI16:1,2011-02-02T21:00:00Z,29.4012,-89.0355,10.0,14.661,11111222 
WAVCIS,ioos:station:WAVCIS:CSI16:1,2011-02-02T21:15:00Z,29.4012,-89.0355,10.0,14.619,11111222 
WAVCIS,ioos:station:WAVCIS:CSI16:1,2011-02-02T21:30:00Z,29.4012,-89.0355,10.0,14.691,11111222 
WAVCIS,ioos:station:WAVCIS:CSI16:1,2011-02-02T21:45:00Z,29.4012,-89.0355,10.0,14.752,11111222 
WAVCIS,ioos:station:WAVCIS:CSI16:1,2011-02-02T22:00:00Z,29.4012,-89.0355,10.0,14.774,11111222 
WAVCIS,ioos:station:WAVCIS:CSI16:1,2011-02-02T22:15:00Z,29.4012,-89.0355,10.0,14.764,11111222 
WAVCIS,ioos:station:WAVCIS:CSI16:1,2011-02-02T22:30:00Z,29.4012,-89.0355,10.0,14.738,11111222 
WAVCIS,ioos:station:WAVCIS:CSI16:1,2011-02-02T22:45:00Z,29.4012,-89.0355,10.0,14.659,11111222 
WAVCIS,ioos:station:WAVCIS:CSI16:1,2011-02-02T23:00:00Z,29.4012,-89.0355,10.0,14.594,11111222 
WAVCIS,ioos:station:WAVCIS:CSI16:1,2011-02-02T23:15:00Z,29.4012,-89.0355,10.0,14.547,11111222 
WAVCIS,ioos:station:WAVCIS:CSI16:1,2011-02-02T23:30:00Z,29.4012,-89.0355,10.0,14.53,11111222 
WAVCIS,ioos:station:WAVCIS:CSI16:1,2011-02-02T23:45:00Z,29.4012,-89.0355,10.0,14.484,11111222 
WAVCIS,ioos:station:WAVCIS:CSI16:1,2011-02-03T00:00:00Z,29.4012,-89.0355,10.0,14.455,11111222 
WAVCIS,ioos:station:WAVCIS:CSI16:1,2011-02-03T00:15:00Z,29.4012,-89.0355,10.0,14.371,11111222 
WAVCIS,ioos:station:WAVCIS:CSI16:1,2011-02-03T00:30:00Z,29.4012,-89.0355,10.0,14.287,11111222 
WAVCIS,ioos:station:WAVCIS:CSI16:1,2011-02-03T00:45:00Z,29.4012,-89.0355,10.0,14.197,11111222 
WAVCIS,ioos:station:WAVCIS:CSI16:1,2011-02-03T01:00:00Z,29.4012,-89.0355,10.0,14.134,11111222 
WAVCIS,ioos:station:WAVCIS:CSI16:1,2011-02-03T01:15:00Z,29.4012,-89.0355,10.0,14.079,11111222 
WAVCIS,ioos:station:WAVCIS:CSI16:1,2011-02-03T01:30:00Z,29.4012,-89.0355,10.0,14.011,11111222 
WAVCIS,ioos:station:WAVCIS:CSI16:1,2011-02-03T01:45:00Z,29.4012,-89.0355,10.0,13.965,11111222 
WAVCIS,ioos:station:WAVCIS:CSI16:1,2011-02-03T02:00:00Z,29.4012,-89.0355,10.0,13.959,11111222 
WAVCIS,ioos:station:WAVCIS:CSI16:1,2011-02-03T02:15:00Z,29.4012,-89.0355,10.0,14.004,11111222 
WAVCIS,ioos:station:WAVCIS:CSI16:1,2011-02-03T02:30:00Z,29.4012,-89.0355,10.0,14.025,11111222 
WAVCIS,ioos:station:WAVCIS:CSI16:1,2011-02-03T02:45:00Z,29.4012,-89.0355,10.0,14.051,11111222 
WAVCIS,ioos:station:WAVCIS:CSI16:1,2011-02-03T03:00:00Z,29.4012,-89.0355,10.0,14.087,11111222 
WAVCIS,ioos:station:WAVCIS:CSI16:1,2011-02-03T03:15:00Z,29.4012,-89.0355,10.0,14.164,11111222 
WAVCIS,ioos:station:WAVCIS:CSI16:1,2011-02-03T03:30:00Z,29.4012,-89.0355,10.0,14.239,11111222 
WAVCIS,ioos:station:WAVCIS:CSI16:1,2011-02-03T03:45:00Z,29.4012,-89.0355,10.0,14.315,11111222 
WAVCIS,ioos:station:WAVCIS:CSI16:1,2011-02-03T04:00:00Z,29.4012,-89.0355,10.0,14.299,11111222 
WAVCIS,ioos:station:WAVCIS:CSI16:1,2011-02-03T04:15:00Z,29.4012,-89.0355,10.0,14.286,11111222 
WAVCIS,ioos:station:WAVCIS:CSI16:1,2011-02-03T04:30:00Z,29.4012,-89.0355,10.0,14.261,11111222 
WAVCIS,ioos:station:WAVCIS:CSI16:1,2011-02-03T04:45:00Z,29.4012,-89.0355,10.0,14.252,11111222 
WAVCIS,ioos:station:WAVCIS:CSI16:1,2011-02-03T05:00:00Z,29.4012,-89.0355,10.0,14.258,11111222 
WAVCIS,ioos:station:WAVCIS:CSI16:1,2011-02-03T05:15:00Z,29.4012,-89.0355,10.0,14.246,11111222 
WAVCIS,ioos:station:WAVCIS:CSI16:1,2011-02-03T05:30:00Z,29.4012,-89.0355,10.0,14.191,11111222 
WAVCIS,ioos:station:WAVCIS:CSI16:1,2011-02-03T05:45:00Z,29.4012,-89.0355,10.0,14.161,11111222 
WAVCIS,ioos:station:WAVCIS:CSI16:1,2011-02-03T06:00:00Z,29.4012,-89.0355,10.0,14.079,11111222 
WAVCIS,ioos:station:WAVCIS:CSI16:1,2011-02-03T06:15:00Z,29.4012,-89.0355,10.0,14.078,11111222 
WAVCIS,ioos:station:WAVCIS:CSI16:1,2011-02-03T06:30:00Z,29.4012,-89.0355,10.0,14.03,11111222 
WAVCIS,ioos:station:WAVCIS:CSI16:1,2011-02-03T06:45:00Z,29.4012,-89.0355,10.0,14.018,11111222 
WAVCIS,ioos:station:WAVCIS:CSI16:1,2011-02-03T07:00:00Z,29.4012,-89.0355,10.0,13.982,11111222 
WAVCIS,ioos:station:WAVCIS:CSI16:1,2011-02-03T07:15:00Z,29.4012,-89.0355,10.0,13.87,11111222 
WAVCIS,ioos:station:WAVCIS:CSI16:1,2011-02-03T07:30:00Z,29.4012,-89.0355,10.0,13.833,11111222 
WAVCIS,ioos:station:WAVCIS:CSI16:1,2011-02-03T07:45:00Z,29.4012,-89.0355,10.0,13.839,11111222 
WAVCIS,ioos:station:WAVCIS:CSI16:1,2011-02-03T08:00:00Z,29.4012,-89.0355,10.0,13.798,11111222 
WAVCIS,ioos:station:WAVCIS:CSI16:1,2011-02-03T08:15:00Z,29.4012,-89.0355,10.0,13.757,11111222 
WAVCIS,ioos:station:WAVCIS:CSI16:1,2011-02-03T08:30:00Z,29.4012,-89.0355,10.0,13.756,11111222 
WAVCIS,ioos:station:WAVCIS:CSI16:1,2011-02-03T08:45:00Z,29.4012,-89.0355,10.0,13.747,11111222 
WAVCIS,ioos:station:WAVCIS:CSI16:1,2011-02-03T09:00:00Z,29.4012,-89.0355,10.0,13.742,11111222 
WAVCIS,ioos:station:WAVCIS:CSI16:1,2011-02-03T09:15:00Z,29.4012,-89.0355,10.0,13.709,11111222 
WAVCIS,ioos:station:WAVCIS:CSI16:1,2011-02-03T09:30:00Z,29.4012,-89.0355,10.0,13.625,11111222 
WAVCIS,ioos:station:WAVCIS:CSI16:1,2011-02-03T09:45:00Z,29.4012,-89.0355,10.0,13.572,11111222 
WAVCIS,ioos:station:WAVCIS:CSI16:1,2011-02-03T10:00:00Z,29.4012,-89.0355,10.0,13.243,11111222 
WAVCIS,ioos:station:WAVCIS:CSI16:1,2011-02-03T10:15:00Z,29.4012,-89.0355,10.0,13.092,11111222 
WAVCIS,ioos:station:WAVCIS:CSI16:1,2011-02-03T10:30:00Z,29.4012,-89.0355,10.0,12.961,11111222 
WAVCIS,ioos:station:WAVCIS:CSI16:1,2011-02-03T10:45:00Z,29.4012,-89.0355,10.0,12.89,11111222 
WAVCIS,ioos:station:WAVCIS:CSI16:1,2011-02-03T11:00:00Z,29.4012,-89.0355,10.0,12.832,11111222 
WAVCIS,ioos:station:WAVCIS:CSI16:1,2011-02-03T11:15:00Z,29.4012,-89.0355,10.0,12.686,11111222 
WAVCIS,ioos:station:WAVCIS:CSI16:1,2011-02-03T11:30:00Z,29.4012,-89.0355,10.0,12.643,11111222 
WAVCIS,ioos:station:WAVCIS:CSI16:1,2011-02-03T11:45:00Z,29.4012,-89.0355,10.0,12.574,11111222 
WAVCIS,ioos:station:WAVCIS:CSI16:1,2011-02-03T12:00:00Z,29.4012,-89.0355,10.0,12.546,11111222 
WAVCIS,ioos:station:WAVCIS:CSI16:1,2011-02-03T12:15:00Z,29.4012,-89.0355,10.0,12.494,11111222 
WAVCIS,ioos:station:WAVCIS:CSI16:1,2011-02-03T12:30:00Z,29.4012,-89.0355,10.0,12.436,11111222 
WAVCIS,ioos:station:WAVCIS:CSI16:1,2011-02-03T12:45:00Z,29.4012,-89.0355,10.0,12.389,11111222 
WAVCIS,ioos:station:WAVCIS:CSI16:1,2011-02-03T13:00:00Z,29.4012,-89.0355,10.0,12.341,11111222 
WAVCIS,ioos:station:WAVCIS:CSI16:1,2011-02-03T13:15:00Z,29.4012,-89.0355,10.0,12.333,11111222 
WAVCIS,ioos:station:WAVCIS:CSI16:1,2011-02-03T13:30:00Z,29.4012,-89.0355,10.0,12.269,11111222 
WAVCIS,ioos:station:WAVCIS:CSI16:1,2011-02-03T13:45:00Z,29.4012,-89.0355,10.0,12.304,11111222 
WAVCIS,ioos:station:WAVCIS:CSI16:1,2011-02-03T14:00:00Z,29.4012,-89.0355,10.0,12.233,11111222 
WAVCIS,ioos:station:WAVCIS:CSI16:1,2011-02-03T14:15:00Z,29.4012,-89.0355,10.0,12.148,11111222 
WAVCIS,ioos:station:WAVCIS:CSI16:1,2011-02-03T14:30:00Z,29.4012,-89.0355,10.0,12.117,11111222 
WAVCIS,ioos:station:WAVCIS:CSI16:1,2011-02-03T14:45:00Z,29.4012,-89.0355,10.0,12.049,11111222 